"Pseudo-MPEC" for GG0412

Created 2023 Sep 27 2:22:11 UT using Find_Orb

Click here for an explanation of pseudo-MPECs

 
 Astrometry: 
     GG0412 *MC2023 09 18t-?_l+HZYDAstrometryKCduZm?redacted;^XjJ$::p=QclickOQ62
     GG0412  MC2023 09 185Mr/5kI'vqa/;g,bheregMfor[%+explanationKO/@CZ]t/L[67Q62

Station data:
(Q62) iTelescope Observatory, Siding Spring  (S31.273286 E149.064420)
   Australia/NSW.  Observers H. Sato, T. Prystavski, M. Mattiazzo, A. Pearce,
   F. D. Romanov. 0.51-m f/6.8 astrograph + CCD + f/4.5 focal reducer0.43-m
   f/6.8 astrograph + CCD + focal reducer0.43-m f/6.8 astrograph + CCD0.10-m
   f/5 astrograph + CCD0.127-m f/5.6 refractor + CCD0.50-m f/6.8 reflector +
   CCD0.30-m f/9 reflector + CCD.

Orbital elements:  GG0412
   Perihelion 2023 Oct 14.58513 +/- 40.1 TT = 14:02:35 (JD 2460232.08513)
Epoch 2023 Sep 18.0 TT = JDT 2460205.5   Earth MOID: 0.1259   Ma: 0.0583
M 349.34515663 +/- 20               (J2000 ecliptic)             AutoNEOCP
n   0.40078210 +/- 0.306            Peri.  246.40284 +/- 100
a   1.82192503 +/- 0.928            Node   133.22569 +/- 57
e   0.3944826 +/- 0.256             Incl.    4.33283 +/- 6
P   2.46/898.23d           H 22.68  G  0.15   U 11.9  SR
q 1.10320727 +/- 0.223    Q 2.54064279 +/- 44.9
From 2 observations 2023 Sept. 18 (15.5 min); mean residual 0".01
Residuals in arcseconds: 
230918 Q62  .01-  .00     230918 Q62  .01-  .00     

Ephemerides (geocentric):
Date (UTC) HH   RA             Dec           delta  r     elong  mag " sig PA
---- --------  ------------   ------------  ------ ------ -----  --- --------
2023 09 27 02  00 17 28.942   -29 46 36.82  .13217 1.1177 148.9 19.8  43d 105
2023 09 27 03  00 17 39.672   -29 47 08.54  .13214 1.1176 148.8 19.8  43d 105
2023 09 27 04  00 17 50.408   -29 47 40.10  .13210 1.1176 148.8 19.8  43d 105
2023 09 27 05  00 18 01.152   -29 48 11.51  .13207 1.1175 148.8 19.8  43d 105
2023 09 27 06  00 18 11.902   -29 48 42.77  .13204 1.1174 148.7 19.8  43d 105
2023 09 27 07  00 18 22.660   -29 49 13.88  .13201 1.1174 148.7 19.8  43d 105
2023 09 27 08  00 18 33.424   -29 49 44.83  .13197 1.1173 148.7 19.8  43d 105
2023 09 27 09  00 18 44.195   -29 50 15.63  .13194 1.1172 148.7 19.8  43d 105
2023 09 27 10  00 18 54.974   -29 50 46.27  .13191 1.1172 148.6 19.8  43d 105
2023 09 27 11  00 19 05.759   -29 51 16.76  .13188 1.1171 148.6 19.8  43d 105
2023 09 27 12  00 19 16.550   -29 51 47.10  .13184 1.1170 148.6 19.8  43d 105
2023 09 27 13  00 19 27.349   -29 52 17.28  .13181 1.1170 148.6 19.8  43d 105
2023 09 27 14  00 19 38.154   -29 52 47.30  .13178 1.1169 148.5 19.8  43d 105
2023 09 27 15  00 19 48.966   -29 53 17.18  .13175 1.1168 148.5 19.8  43d 105
2023 09 27 16  00 19 59.785   -29 53 46.89  .13172 1.1168 148.5 19.8  44d 105
2023 09 27 17  00 20 10.610   -29 54 16.45  .13169 1.1167 148.5 19.8  44d 105
2023 09 27 18  00 20 21.442   -29 54 45.86  .13166 1.1166 148.5 19.8  44d 105
2023 09 27 19  00 20 32.281   -29 55 15.11  .13163 1.1166 148.4 19.8  44d 105
2023 09 27 20  00 20 43.126   -29 55 44.20  .13160 1.1165 148.4 19.8  44d 105
2023 09 27 21  00 20 53.977   -29 56 13.14  .13157 1.1164 148.4 19.8  44d 105
2023 09 27 22  00 21 04.836   -29 56 41.92  .13153 1.1164 148.4 19.8  44d 105
2023 09 27 23  00 21 15.700   -29 57 10.54  .13150 1.1163 148.3 19.8  44d 105
2023 09 28 00  00 21 26.571   -29 57 39.01  .13147 1.1163 148.3 19.8  44d 105
2023 09 28 01  00 21 37.449   -29 58 07.32  .13144 1.1162 148.3 19.8  44d 105
2023 09 28 02  00 21 48.332   -29 58 35.47  .13141 1.1161 148.3 19.8  44d 105
2023 09 28 03  00 21 59.222   -29 59 03.46  .13138 1.1161 148.2 19.8  44d 105
2023 09 28 04  00 22 10.119   -29 59 31.29  .13135 1.1160 148.2 19.8  44d 106
2023 09 28 05  00 22 21.022   -29 59 58.97  .13133 1.1159 148.2 19.8  44d 106
2023 09 28 06  00 22 31.931   -30 00 26.49  .13130 1.1159 148.2 19.8  44d 106
2023 09 28 07  00 22 42.846   -30 00 53.85  .13127 1.1158 148.1 19.8  44d 106
2023 09 28 08  00 22 53.767   -30 01 21.05  .13124 1.1157 148.1 19.8  44d 106
2023 09 28 09  00 23 04.695   -30 01 48.09  .13121 1.1157 148.1 19.8  44d 106
2023 09 28 10  00 23 15.628   -30 02 14.97  .13118 1.1156 148.1 19.8  44d 106
2023 09 28 11  00 23 26.568   -30 02 41.69  .13115 1.1155 148.0 19.8  45d 106
2023 09 28 12  00 23 37.514   -30 03 08.25  .13112 1.1155 148.0 19.8  45d 106
2023 09 28 13  00 23 48.465   -30 03 34.66  .13109 1.1154 148.0 19.8  45d 106
2023 09 28 14  00 23 59.423   -30 04 00.90  .13107 1.1154 148.0 19.8  45d 106
2023 09 28 15  00 24 10.387   -30 04 26.98  .13104 1.1153 147.9 19.8  47d 106
2023 09 28 16  00 24 21.357   -30 04 52.90  .13101 1.1152 147.9 19.8  46d 105
2023 09 28 17  00 24 32.332   -30 05 18.66  .13098 1.1152 147.9 19.8  45d 105
2023 09 28 18  00 24 43.313   -30 05 44.25  .13095 1.1151 147.9 19.8  45d 105
2023 09 28 19  00 24 54.301   -30 06 09.69  .13093 1.1150 147.8 19.8  45d 105
2023 09 28 20  00 25 05.294   -30 06 34.96  .13090 1.1150 147.8 19.8  45d 105
2023 09 28 21  00 25 16.292   -30 07 00.08  .13087 1.1149 147.8 19.8  45d 105
2023 09 28 22  00 25 27.297   -30 07 25.03  .13084 1.1149 147.8 19.8  45d 105
2023 09 28 23  00 25 38.307   -30 07 49.81  .13082 1.1148 147.8 19.8  45d 106
2023 09 29 00  00 25 49.323   -30 08 14.44  .13079 1.1147 147.7 19.8  45d 106
2023 09 29 01  00 26 00.344   -30 08 38.90  .13076 1.1147 147.7 19.8  45d 106